Volver al catálogo

COSMOS 2499 DEB

LostPO
NORAD 55735·DEBRIS·🇷🇺 Russia

Lanzado May 23, 2014 desde Plesetsk Cosmodrome

Loading…

Próximos Pases (próximas 24 horas)

TLE

ObsoletoSource: Space-Track

Época: Jul 18, 2024, 03:28 UTC

1 55735U 14028AX  24200.14513838  .00011960  00000-0  39285-1 0  9996
2 55735  82.4301   0.3385 0249347 222.3480 135.8144 12.90926405 68710

Sigue COSMOS 2499 DEB en tiempo real con AllMySat

Download on the App Store